Погода в Тамдыбулаке

Погода в Тамдыбулаке : погода сейчас, прогноз погоды и архив. Всё, что Вы хотите узнать о погоде в Тамдыбулаке!

Хотите узнать прогноз погоды в Тамдыбулаке? Тогда Вам сюда: Погода в Тамдыбулаке

Поиск расширенной информации на нашем сайте:

Другие новости

Новости СМИ2

Главная страница сайта

Новости сайта

03.07.2017

Напоминаем, что на нашем специализированном сайте Метеоцентр.Азия вы можете получить высокодетализированные автоматические прогнозы погоды по пунктам России, СНГ и мира в авиационном формате (включающие направление и скорость ветра, видимость, явления погоды, количество и форму облачности, нижнюю и верхнюю границу облачности).


Погода в Тамдыбулаке - сегодня

Время (UTC), дата Ветер
(°,м/с) 
Видим.   Явления Облачность Т
(°С)
Тd
(°С)
f(%) Тe
(°С)
Pmin
(гПа)
dP
(гПа)
Po
(мм)
O2
(г/м3)
Тmin Tmax R s Состояние
почвы
09 11.12.17 080 (В) 20000 м    8/0 средняя, верхняя 
[Ac trans|Ci fib]
-3.2 -6.3 79 -5  1028.7  -2.2  749  306           
12 11.12.17 090 (В) 20000 м    10/0 средняя 
[As op]
-4 -6.9 80 -5  1029  0.2  749  307           
15 11.12.17 070 (В) н/о    10/0 средняя 
[As op]
-5.2 -7.5 84 -7  1029.4  0.4  749  309    -3.2       
18 11.12.17 090 (В) н/о    5/0 средняя 
[Ac trans]
-7.8 -9.6 87 -11  1030.1  0.2  749  312    -3.2       
21 11.12.17 080 (В) н/о    3/0 средняя 
[Ac trans]
-9 -10.1 92 -12  1030.6  0.4  750  313           
00 12.12.17 080 (В) н/о    10/0 средняя 
[As op]
-9.5 -10.2 95 -9  1030.1  -0.5  749  314           
03 12.12.17 140 (ЮВ) 20000 м    10/0 средняя 
[As op]
-9.9 -10.7 94 -10  1030.9  0.7  750  315           
06 12.12.17 360 (С) 20000 м    10/0 средняя 
[As op]
-8.8 -9.9 92 -9  1033.9  2.9  752  314  -10.1         
09 12.12.17 260 (З) 20000 м    10/0 средняя 
[Ac As]
-7.2 -8.5 90 -7  1033.1  -0.4  752  312           
12 12.12.17 040 (СВ) 20000 м    9/0 средняя 
[Ac cuf]
-6.6 -8.2 88 -6  1033.7  0.6  752  311           
15 12.12.17 130 (ЮВ) н/о    4/0 средняя 
[As op]
-8 -9.4 90 -8  1034.4  0.5  752  313    -6.6       
18 12.12.17 110 (В) н/о    ясно 
-8.6 -9.7 92 -10  1033.4  -0.8  752  314    -6.6       
21 12.12.17 090 (В) н/о    ясно 
-10 -10.8 94 -12  1033.7  -0.1  752  315           
00 13.12.17 130 (ЮВ) н/о    10/0 средняя 
[As op]
-11.2 -11.6 97 -14  1036.6  -0.2  752  317           
03 13.12.17 100 (В) 20000 м    10/0 средняя 
[As op]
-9.4 -10.1 95 -13  1035.5  1.8  753  315           
06 13.12.17 110 (В) 20000 м    10/0 средняя 
[As op]
-8.8 -9.9 92 -13  1035.9  0.6  753  315  -11.4         
09 13.12.17 120 (ЮВ) 20000 м    8/0 средняя 
[Ac und]
-7.2 -8.5 90 -9  1034.7  -0.9  753  312           
12 13.12.17 130 (ЮВ) 20000 м    8/0 средняя 
[Ac und]
-7 -8.7 88 -8  1034  -0.7  752  312           
15 13.12.17 100 (В) н/о    10/0 средняя 
[Ac As]
-7.8 -9.2 90 -11  1034.7  0.6  753  313    -7       
18 13.12.17 110 (В) н/о    10/0 средняя 
[As op]
-8.8 -9.9 92 -12  1034.7  -0.2  753  314    -7       
21 13.12.17 100 (В) н/о    10/0 средняя 
[As op]
-9.9 -10.7 94 -13  1035.4  0.6  753  316           
00 14.12.17 100 (В) н/о    10/0 средняя 
[As op]
-11.4 -11.9 96 -16  1034.7  -0.8  752  318           
06 14.12.17 090 (В) 20000 м    10/0 средняя 
[As op]
-7.6 -9.4 87 -10  1033  -0.3  752  312  -11.6         
09 14.12.17 090 (В) 20000 м    10/0 средняя 
[As op]
-5.2 -7.7 83 -8  1032.5  -0.3  751  309           
12 14.12.17 100 (В) 20000 м    10/0 средняя 
[As op]
-4.8 -7.8 79 -7  1033  0.6  752  309           
Время (UTC), дата Ветер
(°,м/с) 
Видим.   Явления Облачность Т
(°С)
Тd
(°С)
f(%) Тe
(°С)
Pmin
(гПа)
dP
(гПа)
Po
(мм)
O2
(г/м3)
Тmin Tmax R s Состояние
почвы

Для получения пояснительной информации подведите курсор к названию столбца.

ПОГОДА в Тамдыбулаке - архив

Всё, что Вы хотите узнать о погоде в Тамдыбулаке - удобно и подробно!

Выберите нужную дату (начиная с 1 января 2015* года) и нажмите кнопку "Найти".
Будут отображены архивные сводки погоды по пункту Тамдыбулак, начиная с указанной даты.


Отображать данные в формате CSV (для использования в таблицах Excel)


Внимание! Наш архив погоды предназначен исключительно для личного некоммерческого использования в познавательных целях. Если Вам необходимы официальные справки о состоянии погоды (для производственных, юридических, коммерческих и т.п. целей), обращайтесь в органы Росгидромета.

*Примечание: данная дата относится к архиву по метеостанциям СССР (Россия, СНГ, Балтия).
Архив по метеостанциям Зарубежной Европы и Азии (кроме Китая) хранится 10 дней, по другим регионам земного шара (Китай, Африка, Америка, Австралия, Океания) - 1 день.

Тамдыбулак - район местоположения метеостанции


Название, широта, долгота, высота метеостанции:
Тамдыбулак (Тамды) 41.7°ш. 64.6°д. 237 м над ур. моря [Узбекистан]

Дополнительная информация

В oтличие oт бoльшинства пoгoдных сайтoв мы публикуем пoдрoбную метеoинфoрмацию в детальнoм прoфессиoнальнoм фoрмате.

Характеристики температуры и влажнoсти вoздуха измеряются на высoте 2 м в тени вдали oт зданий и деревьев.
Скoрoсть ветра измеряется на высoте 10 м (на урoвне рoста челoвека скoрoсть ветра ниже в 1.5-2 раза). Если метеoстанция нахoдится в гoрoде или в лесу, тo скoрoсть ветра занижена на 2-4 м/с пo сравнению с oткрытым местoм. Скoрoсть ветра над акватoриями крупных рек и oзёр, а также на вершинах хoлмoв на 2-5 м/с выше, чем в oбычных услoвиях.
Атмoсфернoе давление в разных тoчках местнoсти мoжет значительнo oтличаться oт давления на метеoстанции, в зависимoсти oт услoвий рельефа (при пoдъёме на 10 м давление пoнижается примернo на 1 мм рт.ст.).